Regional Weather Roundup
Issued by NWS

Home | Current Version | Previous Version | Text Only | Print | Product List | Glossary Off
Versions: 1 2 3 4 5 6 7 8 9 10 11 12 13 14 15 16 17 18 19 20 21 22 23 24 25 26 27 28 29 30 31 32 33 34 35 36 37 38 39 40 41 42 43 44 45 46 47 48 49 50

000
ASUS43 KMKX 251921
RWRWI

WISCONSIN REGIONAL WEATHER ROUNDUP
NATIONAL WEATHER SERVICE MILWAUKEE/SULLIVAN WI
200 PM CDT THU AUG 25 2016

NOTE: "FAIR" INDICATES FEW OR NO CLOUDS BELOW 12,000 FEET WITH NO
SIGNIFICANT WEATHER AND/OR OBSTRUCTIONS TO VISIBILITY.

WIZ001-002-006>008-014>016-023>028-252000-
NORTHWEST WISCONSIN

CITY           SKY/WX    TMP DP  RH WIND       PRES   REMARKS
SUPERIOR ARPT  CLOUDY    68  54  61 W17G24    29.97R
ASHLAND        LGT RAIN  76  53  44 W16G28    29.94R
HAYWARD        MOSUNNY   72  53  51 SW14G24   30.00R
SIREN          MOSUNNY   71  53  53 W14G22    30.02S
CUMBERLAND     PTSUNNY   70  50  49 W15G23    30.03R
RICE LAKE      PTSUNNY   72  55  53 W13G20    30.03S
CHETEK         NOT AVBL
LADYSMITH      MOSUNNY   75  57  53 W14G23    30.02S
EAU CLAIRE     CLOUDY    78  57  48 SW21G26   30.02S
MENOMONIE      PTSUNNY   76  54  45 W15       30.03S
NEW RICHMOND   CLOUDY    71  53  53 W13G20    30.04F
OSCEOLA        MOSUNNY   71  55  58 W13       30.07S
$$

WIZ003>005-009-010-017-018-252000-
NORTH CENTRAL WISCONSIN

CITY           SKY/WX    TMP DP  RH WIND       PRES   REMARKS
MANITOWISH WTR NOT AVBL
ARBOR VITAE    MOSUNNY   77  58  51 SW14G23   29.98F
WOODRUFF       MOSUNNY   77  58  51 SW14G23   29.98F
RHINELANDER    MOSUNNY   76  56  49 W14       29.99F
EAGLE RIVER    MOSUNNY   73  52  47 W16G26    29.97F
LAND O LAKES   MOSUNNY   74  52  44 W8G17     29.97F
PHILLIPS       CLOUDY    74  55  51 SW17      29.98F
TOMAHAWK       MOSUNNY   74  56  52 W5        30.00F
MEDFORD        CLOUDY    73  59  60 SW12G20   30.02S
MERRILL        MOSUNNY   76  58  53 W18G26    30.01F
$$

WIZ029-030-035-036-043>047-252000-
CENTRAL WISCONSIN

CITY           SKY/WX    TMP DP  RH WIND       PRES   REMARKS
WAUSAU         MOSUNNY   77  57  50 W12       30.00F
MOSINEE        MOSUNNY   75  57  53 W15G21    30.03F
MARSHFIELD     MOSUNNY   77  58  51 W15       30.02F
STEVENS POINT  SUNNY     76  56  51 W9G20     30.03S
WAUPACA        SUNNY     82  58  43 W9        30.02S HX  81
WAUTOMA        SUNNY     79  60  52 W9        30.04S HX  80
WISC RAPIDS    SUNNY     80  57  45 W13G21    30.04S HX  80
CAMP DOUGLAS   MOSUNNY   77  61  57 W12       30.05S
$$

WIZ011>013-019>022-031-037>040-048>050-252000-
NORTHEAST WISCONSIN

CITY           SKY/WX    TMP DP  RH WIND       PRES   REMARKS
ANTIGO         MOSUNNY   75  58  55 W15G21    30.01F
SHAWANO        SUNNY     81  57  44 W7        29.99S HX  81
OCONTO         NOT AVBL
STURGEON BAY   SUNNY     77  59  53 W9          N/A
GREEN BAY      SUNNY     78  61  55 W8        30.00S HX  80
MANITOWOC      SUNNY     78  57  48 MISG      30.00F
APPLETON       PTSUNNY   75  54  46 W10       30.00F
CLINTONVILLE   SUNNY     79  57  47 W10       30.00S HX  80
OSHKOSH        SUNNY     77  59  53 SW5       30.02S
$$

WIZ032>034-041-042-053>061-252000-
SOUTHWEST WISCONSIN

CITY           SKY/WX    TMP DP  RH WIND       PRES   REMARKS
LA CROSSE      CLOUDY    79  59  50 W10       30.05S HX  80
SPARTA         MOSUNNY   77  62  59 W6        30.06S
VIROQUA        CLOUDY    75  62  62 W8        30.09S
BOSCOBEL       CLOUDY    78  61  55 W8        30.08R HX  80
PRAIRIE DU CHI PTSUNNY   75  58  54 W5        30.07F
PLATTEVILLE    CLOUDY    77  61  57 SW5       30.09R
$$

WIZ056-057-062-063-064-067-068-252000-
SOUTH CENTRAL WISCONSIN

CITY           SKY/WX    TMP DP  RH WIND       PRES   REMARKS
REEDSBURG      NOT AVBL
BARABOO/DELLS  CLOUDY    76  58  54 W7        30.07S
LONE ROCK      CLOUDY    77  61  57 W7        30.07S
MINERAL POINT  CLOUDY    79  55  44 W5        30.08F
MADISON        PTSUNNY   78  57  48 W5        30.05S
MIDDLETON      MOSUNNY   81  58  45 CALM      30.06F HX  81
WATERTOWN      SUNNY     77  59  54 W5        30.05S
MONROE         CLOUDY    77  59  53 N3        30.07S
JANESVILLE     NOT AVBL
$$

WIZ051-052-058>065-066-070>072-252000-
SOUTHEAST WISCONSIN

CITY           SKY/WX    TMP DP  RH WIND       PRES   REMARKS
MILWAUKEE      PTSUNNY   83  57  41 CALM      30.03F HX  82
WAUKESHA       SUNNY     77  57  50 NW6       30.05F
MILWAUKEE/TIMM SUNNY     81  54  39 W8        30.04S HX  80
RACINE         CLOUDY    81  60  48 MISG      30.04F HX  82
BURLINGTON     CLOUDY    78  58  50 NW6       30.04F HX  80
KENOSHA        CLOUDY    80  60  50 NW8       30.04S HX  81
FOND DU LAC    CLOUDY    78  58  49 W6        30.03S
SHEBOYGAN      SUNNY     78  58  49 W8        30.02F
WEST BEND      SUNNY     77  52  41 W5        30.04S
JUNEAU         SUNNY     76  55  48 W3        30.06S
$$

LSZ147-162-252000-
LAKE SUPERIOR

STATION/POSITION TIME  TEMP    WIND        PRES    WAVE
                       AIR SEA DIR/SP/G            HT/PER
                 (UTC) (F)     (DEG/KT/KT) (MB)    (FT/S)
W MID LAKE BUOY  1850   68 68  240/ 21/ 25 1011.3F   4/ 5
DEVILS ISLAND    1900   68     230/ 19/ 22 1012.9R
PORT WING        1800   70     270/ 16/ 21 1013.9R
SAXON HARBOR     1840   75     250/  8/ 18 1013.2F
$$

LMZ867-665-643>646-252000-
LAKE MICHIGAN

STATION/POSITION TIME  TEMP    WIND        PRES    WAVE
                       AIR SEA DIR/SP/G            HT/PER
                 (UTC) (F)     (DEG/KT/KT) (MB)    (FT/S)
CHAMBERS ISLAND  1800   74     220/  5/ 10 1014.6S
S GREEN BAY BUOY 1900   74 73  250/  8/ 10 1014.8S
N MID LAKE BUOY  1850   70 70  240/  8/ 10 1013.7F   1/ 5
NORTHPORT PIER   1800   76     240/  5/  9 1014.6S
SISTER BAY       1837   78     280/ 10/ 12   N/A
ALGOMA LAKESHORE 1700           10/  7/ 10   N/A
KEWAUNEE LAKESHO 1800   75     290/  5/  9 1015.4R
SHEBOYGAN LAKESH 1900   71     150/  7/  8 1015.5F
PORT WASHINGTON  1800   72     170/  7/  9 1017.3S
ATWATER BUOY     1900   64 48  180/  2/  4   N/A
MILWAUKEE LAKESH 1810   67     130/  5/  6   N/A
S MID LAKE BUOY  1850   71 75  310/  8/ 10 1016.5R   1/ 3
KENOSHA   LAKESH 1900   75     100/  4/  4 1016.6S
$$

TC  - TEMPERATURE IN CELSIUS
VSB - VISIBILITY IN STATUTE MILES
WCI - WIND CHILL INDEX
HX  - HEAT INDEX




USA.gov is the U.S. government's official web portal to all federal, state and local government web resources and services.